| time (UTC) | temp C | wind direction | speed KPH | gust KPH | rain 1hr cm | rain 24hr cm | rain mn cm | humidity % | barometer mb |
| 20260507201603 | 18 | 262 | 3.2 | 6.4 | 0.00 | 0.36 | 0.28 | 30 | 1004.7 |
| 20260507201101 | 18 | 264 | 3.2 | 9.7 | 0.00 | 0.36 | 0.28 | 30 | 1004.7 |
| 20260507200601 | 18 | 245 | 1.6 | 9.7 | 0.00 | 0.36 | 0.28 | 28 | 1004.7 |
| 20260507200100 | 18 | 301 | 1.6 | 9.7 | 0.00 | 0.36 | 0.28 | 29 | 1004.7 |
| 20260507195601 | 18 | 252 | 1.6 | 9.7 | 0.00 | 0.36 | 0.28 | 29 | 1004.8 |
| 20260507195101 | 18 | 230 | 1.6 | 11.3 | 0.00 | 0.36 | 0.28 | 30 | 1004.9 |
| 20260507194829 | 18 | 5 | 1.6 | 11.3 | 0.00 | 0.38 | 0.28 | 29 | 1005.0 |
| 20260507194101 | 19 | 145 | 1.6 | 6.4 | 0.00 | 0.38 | 0.28 | 27 | 1005.0 |
| 20260507194057 | 18 | 139 | 1.6 | 11.3 | 0.00 | 0.38 | 0.28 | 28 | 1005.0 |
| 20260507193053 | 18 | 258 | 1.6 | 4.8 | 0.00 | 0.38 | 0.28 | 29 | 1005.0 |
| 20260507192539 | 18 | 206 | 1.6 | 6.4 | 0.00 | 0.41 | 0.28 | 29 | 1005.1 |
| 20260507192306 | 18 | 249 | 1.6 | 11.3 | 0.00 | 0.41 | 0.28 | 27 | 1005.1 |
| 20260507191905 | 18 | 214 | 1.6 | 8.0 | 0.00 | 0.41 | 0.28 | 27 | 1005.2 |
| 20260507191758 | 18 | 188 | 1.6 | 11.3 | 0.00 | 0.41 | 0.28 | 28 | 1005.1 |
| 20260507190525 | 18 | 40 | 1.6 | 6.4 | 0.00 | 0.41 | 0.28 | 29 | 1005.2 |
| 20260507190023 | 18 | 316 | 1.6 | 6.4 | 0.00 | 0.41 | 0.28 | 28 | 1005.2 |
| 20260507185521 | 18 | 289 | 3.2 | 6.4 | 0.00 | 0.41 | 0.28 | 28 | 1005.2 |
| 20260507185253 | 18 | 217 | 3.2 | 9.7 | 0.00 | 0.41 | 0.28 | 27 | 1005.3 |
| 20260507184521 | 18 | 235 | 1.6 | 9.7 | 0.00 | 0.41 | 0.28 | 28 | 1005.3 |
| 20260507184018 | 18 | 214 | 3.2 | 17.7 | 0.00 | 0.41 | 0.28 | 27 | 1005.5 |
| 20260507183519 | 18 | 249 | 3.2 | 17.7 | 0.00 | 0.41 | 0.28 | 27 | 1005.4 |
| 20260507183019 | 18 | 201 | 1.6 | 12.9 | 0.00 | 0.41 | 0.28 | 29 | 1005.4 |
| 20260507182518 | 18 | 251 | 3.2 | 12.9 | 0.00 | 0.41 | 0.28 | 32 | 1005.4 |
| 20260507182021 | 18 | 260 | 1.6 | 9.7 | 0.00 | 0.41 | 0.28 | 30 | 1005.4 |
| 20260507181521 | 18 | 189 | 1.6 | 9.7 | 0.00 | 0.41 | 0.28 | 33 | 1005.5 |
| 20260507181016 | 18 | 223 | 1.6 | 9.7 | 0.00 | 0.41 | 0.28 | 33 | 1005.6 |
| 20260507180517 | 18 | 227 | 0.0 | 9.7 | 0.00 | 0.41 | 0.28 | 33 | 1005.6 |
| 20260507180017 | 18 | 169 | 1.6 | 6.4 | 0.00 | 0.41 | 0.28 | 33 | 1005.7 |
| 20260507175515 | 18 | 212 | 3.2 | 9.7 | 0.00 | 0.41 | 0.28 | 33 | 1005.7 |
| 20260507175013 | 18 | 191 | 1.6 | 11.3 | 0.00 | 0.41 | 0.28 | 35 | 1005.7 |
| 20260507174740 | 18 | 12 | 1.6 | 11.3 | 0.00 | 0.41 | 0.28 | 34 | 1005.6 |
| 20260507174006 | 18 | 226 | 1.6 | 6.4 | 0.00 | 0.41 | 0.28 | 37 | 1005.7 |
| 20260507173507 | 18 | 163 | 1.6 | 8.0 | 0.00 | 0.41 | 0.28 | 36 | 1005.7 |
| 20260507173007 | 17 | 262 | 1.6 | 8.0 | 0.00 | 0.41 | 0.28 | 36 | 1005.7 |
| 20260507172507 | 17 | 304 | 1.6 | 6.4 | 0.00 | 0.41 | 0.28 | 35 | 1005.7 |
| 20260507172007 | 17 | 248 | 1.6 | 6.4 | 0.00 | 0.41 | 0.28 | 37 | 1005.8 |
| 20260507171505 | 17 | 61 | 1.6 | 8.0 | 0.00 | 0.41 | 0.28 | 40 | 1005.7 |
| 20260507171003 | 17 | 241 | 1.6 | 8.0 | 0.00 | 0.41 | 0.28 | 38 | 1005.7 |
| 20260507170727 | 17 | 210 | 1.6 | 6.4 | 0.00 | 0.41 | 0.28 | 41 | 1005.8 |
| 20260507170226 | 17 | 164 | 1.6 | 8.0 | 0.00 | 0.41 | 0.28 | 44 | 1005.9 |
| 20260507165446 | 17 | 50 | 1.6 | 8.0 | 0.00 | 0.41 | 0.28 | 43 | 1006.0 |
| 20260507164947 | 17 | 295 | 1.6 | 4.8 | 0.00 | 0.41 | 0.28 | 45 | 1006.0 |
| 20260507164444 | 16 | 255 | 1.6 | 4.8 | 0.00 | 0.41 | 0.28 | 48 | 1006.0 |
| 20260507163944 | 16 | 192 | 1.6 | 9.7 | 0.00 | 0.41 | 0.28 | 46 | 1006.1 |
| 20260507163445 | 16 | 331 | 1.6 | 9.7 | 0.00 | 0.41 | 0.28 | 46 | 1006.2 |
| 20260507162945 | 16 | 208 | 1.6 | 6.4 | 0.00 | 0.41 | 0.28 | 51 | 1006.2 |
| 20260507162445 | 16 | 304 | 1.6 | 6.4 | 0.00 | 0.41 | 0.28 | 50 | 1006.4 |
| 20260507162213 | 16 | 279 | 1.6 | 14.5 | 0.00 | 0.41 | 0.28 | 52 | 1006.3 |
| 20260507161441 | 15 | 243 | 3.2 | 14.5 | 0.00 | 0.41 | 0.28 | 51 | 1006.3 |
| 20260507160934 | 15 | 211 | 1.6 | 8.0 | 0.00 | 0.41 | 0.28 | 51 | 1006.4 |
| 20260507160433 | 16 | 207 | 1.6 | 6.4 | 0.00 | 0.41 | 0.28 | 52 | 1006.4 |
| 20260507155935 | 15 | 112 | 0.0 | 6.4 | 0.00 | 0.41 | 0.28 | 54 | 1006.5 |
| 20260507155431 | 15 | 197 | 0.0 | 6.4 | 0.00 | 0.41 | 0.28 | 52 | 1006.5 |
| 20260507154930 | 15 | 139 | 0.0 | 3.2 | 0.00 | 0.41 | 0.28 | 58 | 1006.6 |
| 20260507154435 | 15 | 1 | 0.0 | 4.8 | 0.00 | 0.41 | 0.28 | 56 | 1006.7 |
| 20260507154431 | 15 | 30 | 0.0 | 4.8 | 0.00 | 0.41 | 0.28 | 57 | 1006.7 |
| 20260507153431 | 15 | 238 | 0.0 | 4.8 | 0.00 | 0.41 | 0.28 | 56 | 1006.7 |
| 20260507152930 | 15 | 325 | 0.0 | 4.8 | 0.00 | 0.41 | 0.28 | 59 | 1006.7 |
| 20260507152430 | 15 | 232 | 0.0 | 3.2 | 0.00 | 0.41 | 0.28 | 58 | 1006.8 |
| 20260507151931 | 15 | 232 | 0.0 | 3.2 | 0.00 | 0.41 | 0.28 | 55 | 1006.9 |
| 20260507151430 | 15 | 168 | 1.6 | 6.4 | 0.00 | 0.41 | 0.28 | 58 | 1006.9 |
| 20260507150931 | 15 | 208 | 1.6 | 8.0 | 0.00 | 0.41 | 0.28 | 54 | 1006.9 |
| 20260507150431 | 15 | 197 | 1.6 | 8.0 | 0.00 | 0.41 | 0.28 | 54 | 1006.9 |
| 20260507145931 | 15 | 126 | 1.6 | 6.4 | 0.00 | 0.41 | 0.28 | 53 | 1007.0 |
| 20260507145431 | 15 | 279 | 0.0 | 3.2 | 0.00 | 0.41 | 0.28 | 57 | 1007.1 |
| 20260507144930 | 15 | 326 | 0.0 | 3.2 | 0.00 | 0.41 | 0.28 | 54 | 1007.2 |
| 20260507144430 | 15 | 196 | 0.0 | 11.3 | 0.00 | 0.41 | 0.28 | 55 | 1007.2 |
| 20260507144201 | 15 | 316 | 1.6 | 11.3 | 0.00 | 0.41 | 0.28 | 55 | 1007.4 |
| 20260507143430 | 15 | 264 | 1.6 | 6.4 | 0.00 | 0.41 | 0.28 | 56 | 1007.3 |
| 20260507142931 | 15 | 237 | 1.6 | 6.4 | 0.00 | 0.41 | 0.28 | 54 | 1007.2 |
| 20260507142426 | 15 | 35 | 0.0 | 4.8 | 0.00 | 0.41 | 0.28 | 55 | 1007.3 |
| 20260507141926 | 15 | 216 | 0.0 | 4.8 | 0.00 | 0.41 | 0.28 | 55 | 1007.3 |
| 20260507141427 | 14 | 49 | 0.0 | 3.2 | 0.00 | 0.41 | 0.28 | 58 | 1007.4 |
| 20260507140926 | 14 | 61 | 0.0 | 3.2 | 0.00 | 0.41 | 0.28 | 58 | 1007.3 |
| 20260507140426 | 14 | 205 | 0.0 | 4.8 | 0.00 | 0.41 | 0.28 | 59 | 1007.3 |
| 20260507135930 | 13 | 219 | 0.0 | 3.2 | 0.00 | 0.41 | 0.28 | 60 | 1007.3 |
| 20260507135926 | 13 | 205 | 0.0 | 4.8 | 0.00 | 0.41 | 0.28 | 61 | 1007.3 |
| 20260507134926 | 13 | 163 | 0.0 | 3.2 | 0.00 | 0.41 | 0.28 | 65 | 1007.3 |
| 20260507134426 | 13 | 62 | 0.0 | 4.8 | 0.00 | 0.41 | 0.28 | 64 | 1007.3 |
| 20260507134158 | 13 | 335 | 0.0 | 4.8 | 0.00 | 0.41 | 0.28 | 66 | 1007.3 |
| 20260507133426 | 13 | 90 | 0.0 | 9.7 | 0.00 | 0.41 | 0.28 | 66 | 1007.2 |
| 20260507132927 | 12 | 107 | 0.0 | 9.7 | 0.00 | 0.41 | 0.28 | 68 | 1007.3 |
| 20260507132426 | 12 | 4 | 1.6 | 6.4 | 0.00 | 0.41 | 0.28 | 71 | 1007.4 |
| 20260507131926 | 12 | 7 | 0.0 | 6.4 | 0.00 | 0.41 | 0.28 | 70 | 1007.5 |
| 20260507131419 | 12 | 216 | 0.0 | 3.2 | 0.00 | 0.41 | 0.28 | 74 | 1007.5 |
| 20260507131145 | 12 | 218 | 0.0 | 3.2 | 0.00 | 0.41 | 0.28 | 76 | 1007.6 |
| 20260507130408 | 11 | 339 | 0.0 | 3.2 | 0.00 | 0.41 | 0.28 | 78 | 1007.5 |
| 20260507125908 | 11 | 193 | 1.6 | 8.0 | 0.00 | 0.41 | 0.28 | 81 | 1007.5 |
| 20260507125406 | 11 | 81 | 0.0 | 8.0 | 0.00 | 0.41 | 0.28 | 81 | 1007.7 |
| 20260507124905 | 11 | 187 | 0.0 | 3.2 | 0.00 | 0.41 | 0.28 | 85 | 1007.8 |
| 20260507124406 | 10 | 312 | 0.0 | 4.8 | 0.00 | 0.41 | 0.28 | 84 | 1007.9 |
| 20260507124402 | 10 | 187 | 0.0 | 4.8 | 0.00 | 0.41 | 0.28 | 84 | 1007.8 |
| 20260507123629 | 10 | 110 | 0.0 | 8.0 | 0.00 | 0.41 | 0.28 | 86 | 1007.7 |
| 20260507122856 | 10 | 48 | 0.0 | 8.0 | 0.00 | 0.41 | 0.28 | 86 | 1007.6 |
| 20260507122356 | 10 | 244 | 0.0 | 4.8 | 0.00 | 0.41 | 0.28 | 87 | 1007.6 |
| 20260507122127 | 9 | 31 | 0.0 | 3.2 | 0.00 | 0.41 | 0.28 | 87 | 1007.7 |
| 20260507121354 | 9 | 21 | 0.0 | 3.2 | 0.00 | 0.41 | 0.28 | 87 | 1007.7 |
| 20260507120839 | 9 | 139 | 0.0 | 0.0 | 0.00 | 0.41 | 0.28 | 87 | 1007.6 |
| 20260507120337 | 8 | 139 | 0.0 | 1.6 | 0.00 | 0.41 | 0.28 | 87 | 1007.5 |
| 20260507115836 | 8 | 139 | 0.0 | 1.6 | 0.00 | 0.41 | 0.28 | 87 | 1007.5 |
| 20260507115608 | 8 | 42 | 0.0 | 0.0 | 0.00 | 0.41 | 0.28 | 87 | 1007.6 |
| 20260507114834 | 8 | 43 | 0.0 | 0.0 | 0.00 | 0.41 | 0.28 | 87 | 1007.6 |
| 20260507114603 | 8 | 43 | 0.0 | 0.0 | 0.00 | 0.41 | 0.28 | 87 | 1007.6 |
| 20260507113830 | 8 | 43 | 0.0 | 1.6 | 0.00 | 0.41 | 0.28 | 87 | 1007.4 |
| 20260507113328 | 8 | 43 | 0.0 | 1.6 | 0.00 | 0.41 | 0.28 | 87 | 1007.4 |
| 20260507112826 | 8 | 289 | 0.0 | 1.6 | 0.00 | 0.41 | 0.28 | 87 | 1007.4 |
| 20260507112555 | 8 | 289 | 0.0 | 1.6 | 0.00 | 0.41 | 0.28 | 87 | 1007.5 |
| 20260507111822 | 8 | 214 | 0.0 | 0.0 | 0.00 | 0.41 | 0.28 | 87 | 1007.4 |
| 20260507111320 | 8 | 214 | 0.0 | 0.0 | 0.00 | 0.41 | 0.28 | 87 | 1007.4 |
| 20260507110814 | 8 | 214 | 0.0 | 0.0 | 0.03 | 0.41 | 0.28 | 87 | 1007.3 |
| 20260507110542 | 8 | 214 | 0.0 | 0.0 | 0.03 | 0.41 | 0.28 | 87 | 1007.2 |
| 20260507105813 | 8 | 214 | 0.0 | 0.0 | 0.03 | 0.41 | 0.28 | 87 | 1007.3 |
| 20260507105312 | 8 | 214 | 0.0 | 0.0 | 0.03 | 0.41 | 0.28 | 87 | 1007.4 |
| 20260507104812 | 8 | 214 | 0.0 | 0.0 | 0.03 | 0.41 | 0.28 | 87 | 1007.5 |
| 20260507104540 | 8 | 214 | 0.0 | 1.6 | 0.05 | 0.41 | 0.28 | 87 | 1007.6 |
| 20260507103808 | 8 | 214 | 0.0 | 1.6 | 0.05 | 0.41 | 0.28 | 87 | 1007.6 |
| 20260507103306 | 8 | 214 | 0.0 | 1.6 | 0.05 | 0.41 | 0.28 | 87 | 1007.6 |
| 20260507102806 | 8 | 214 | 0.0 | 1.6 | 0.05 | 0.41 | 0.28 | 87 | 1007.2 |
| 20260507102307 | 8 | 213 | 0.0 | 0.0 | 0.05 | 0.41 | 0.28 | 87 | 1007.2 |
| 20260507102034 | 8 | 214 | 0.0 | 0.0 | 0.08 | 0.41 | 0.28 | 87 | 1006.9 |
| 20260507101258 | 8 | 214 | 0.0 | 0.0 | 0.10 | 0.41 | 0.28 | 87 | 1007.0 |
| 20260507101014 | 8 | 213 | 0.0 | 0.0 | 0.10 | 0.38 | 0.25 | 87 | 1007.0 |
| 20260507100242 | 8 | 214 | 0.0 | 1.6 | 0.13 | 0.38 | 0.25 | 87 | 1007.0 |
| 20260507095732 | 8 | 214 | 0.0 | 1.6 | 0.13 | 0.38 | 0.25 | 86 | 1006.8 |
| 20260507095226 | 8 | 251 | 0.0 | 3.2 | 0.15 | 0.38 | 0.25 | 86 | 1006.7 |
| 20260507094727 | 8 | 289 | 0.0 | 3.2 | 0.15 | 0.38 | 0.25 | 86 | 1006.8 |
| 20260507094224 | 8 | 29 | 0.0 | 1.6 | 0.13 | 0.36 | 0.23 | 86 | 1006.7 |
| 20260507093721 | 8 | 29 | 0.0 | 3.2 | 0.13 | 0.36 | 0.23 | 86 | 1006.6 |
| 20260507093455 | 9 | 284 | 0.0 | 3.2 | 0.13 | 0.36 | 0.23 | 86 | 1006.7 |
| 20260507092723 | 9 | 355 | 0.0 | 6.4 | 0.13 | 0.36 | 0.23 | 86 | 1006.8 |
| 20260507092452 | 9 | 45 | 0.0 | 6.4 | 0.15 | 0.36 | 0.23 | 86 | 1006.9 |
| 20260507091722 | 9 | 352 | 0.0 | 0.0 | 0.13 | 0.33 | 0.20 | 86 | 1006.8 |
| 20260507091220 | 9 | 352 | 0.0 | 0.0 | 0.10 | 0.30 | 0.18 | 86 | 1006.9 |
| 20260507090949 | 9 | 352 | 0.0 | 0.0 | 0.08 | 0.28 | 0.15 | 86 | 1007.0 |
| 20260507090217 | 9 | 352 | 0.0 | 1.6 | 0.05 | 0.25 | 0.13 | 86 | 1007.1 |
| 20260507085718 | 9 | 352 | 0.0 | 1.6 | 0.08 | 0.25 | 0.13 | 86 | 1007.2 |
| 20260507085218 | 9 | 352 | 0.0 | 4.8 | 0.05 | 0.23 | 0.10 | 86 | 1007.0 |
| 20260507084721 | 10 | 170 | 0.0 | 4.8 | 0.05 | 0.23 | 0.10 | 86 | 1007.0 |
| 20260507084218 | 10 | 22 | 0.0 | 0.0 | 0.08 | 0.23 | 0.10 | 85 | 1006.9 |
| 20260507083947 | 10 | 22 | 0.0 | 1.6 | 0.10 | 0.23 | 0.10 | 85 | 1006.9 |
| 20260507083448 | 10 | 22 | 0.0 | 1.6 | 0.10 | 0.23 | 0.10 | 85 | 1006.8 |
| 20260507082716 | 10 | 22 | 0.0 | 4.8 | 0.10 | 0.23 | 0.10 | 85 | 1006.7 |
| 20260507082216 | 10 | 22 | 0.0 | 4.8 | 0.08 | 0.20 | 0.10 | 85 | 1006.6 |
| 20260507081716 | 10 | 270 | 0.0 | 4.8 | 0.08 | 0.20 | 0.08 | 85 | 1006.4 |
| 20260507081202 | 10 | 167 | 0.0 | 3.2 | 0.08 | 0.20 | 0.08 | 85 | 1006.4 |
| 20260507080648 | 11 | 241 | 0.0 | 4.8 | 0.08 | 0.20 | 0.08 | 85 | 1006.7 |
| 20260507080148 | 11 | 324 | 0.0 | 4.8 | 0.08 | 0.20 | 0.08 | 85 | 1006.6 |
| 20260507075645 | 11 | 272 | 0.0 | 4.8 | 0.05 | 0.18 | 0.05 | 85 | 1006.6 |
| 20260507075144 | 11 | 272 | 0.0 | 4.8 | 0.05 | 0.18 | 0.05 | 85 | 1006.6 |
| 20260507074646 | 11 | 145 | 0.0 | 1.6 | 0.05 | 0.18 | 0.05 | 84 | 1006.3 |
| 20260507074144 | 11 | 256 | 0.0 | 1.6 | 0.03 | 0.15 | 0.03 | 84 | 1006.4 |
| 20260507073641 | 11 | 255 | 0.0 | 1.6 | 0.00 | 0.13 | 0.00 | 83 | 1006.5 |
| 20260507073139 | 11 | 250 | 0.0 | 1.6 | 0.00 | 0.13 | 0.00 | 83 | 1006.6 |
| 20260507072908 | 11 | 250 | 0.0 | 1.6 | 0.00 | 0.13 | 0.00 | 83 | 1006.0 |
| 20260507072409 | 11 | 27 | 0.0 | 1.6 | 0.00 | 0.13 | 0.00 | 82 | 1005.8 |
| 20260507072245 | 11 | 38 | 0.0 | 1.6 | 0.00 | 0.13 | 0.00 | 82 | 1005.7 |
| 20260507071135 | 11 | 37 | 0.0 | 1.6 | 0.00 | 0.13 | 0.00 | 82 | 1005.8 |
| 20260507070634 | 11 | 13 | 0.0 | 0.0 | 0.00 | 0.13 | 0.00 | 82 | 1006.0 |
| 20260507070124 | 11 | 13 | 0.0 | 4.8 | 0.00 | 0.13 | 0.00 | 82 | 1005.9 |
| 20260507065621 | 12 | 13 | 0.0 | 4.8 | 0.00 | 0.13 | 0.00 | 81 | 1005.8 |
| 20260507065353 | 12 | 345 | 0.0 | 4.8 | 0.00 | 0.13 | 0.00 | 81 | 1005.8 |
| 20260507064855 | 12 | 158 | 0.0 | 3.2 | 0.00 | 0.13 | 0.00 | 82 | 1005.9 |
| 20260507064122 | 12 | 108 | 0.0 | 1.6 | 0.00 | 0.13 | 0.00 | 84 | 1005.9 |
| 20260507063624 | 12 | 12 | 0.0 | 11.3 | 0.00 | 0.13 | 0.00 | 84 | 1006.0 |
| 20260507063619 | 12 | 12 | 0.0 | 1.6 | 0.00 | 0.13 | 0.00 | 84 | 1005.9 |
| 20260507062848 | 12 | 12 | 0.0 | 11.3 | 0.00 | 0.13 | 0.00 | 85 | 1005.9 |
| 20260507062118 | 12 | 39 | 0.0 | 1.6 | 0.00 | 0.13 | 0.00 | 84 | 1005.8 |
| 20260507061618 | 13 | 76 | 0.0 | 3.2 | 0.00 | 0.13 | 0.00 | 85 | 1005.7 |
| 20260507061117 | 13 | 137 | 0.0 | 3.2 | 0.00 | 0.13 | 0.00 | 85 | 1005.6 |
| 20260507060616 | 13 | 22 | 0.0 | 3.2 | 0.00 | 0.13 | 0.00 | 85 | 1005.9 |
| 20260507060104 | 13 | 22 | 0.0 | 3.2 | 0.00 | 0.13 | 0.00 | 85 | 1005.9 |
| 20260507055604 | 13 | 140 | 0.0 | 1.6 | 0.00 | 0.13 | 0.00 | 85 | 1005.9 |
| 20260507055101 | 13 | 133 | 0.0 | 1.6 | 0.00 | 0.13 | 0.00 | 85 | 1005.8 |
| 20260507054602 | 13 | 133 | 0.0 | 1.6 | 0.00 | 0.13 | 0.00 | 85 | 1006.0 |
| 20260507054059 | 13 | 203 | 0.0 | 1.6 | 0.00 | 0.13 | 0.00 | 85 | 1006.2 |
| 20260507053832 | 13 | 209 | 0.0 | 0.0 | 0.00 | 0.13 | 0.00 | 85 | 1006.4 |
| 20260507053059 | 13 | 209 | 0.0 | 6.4 | 0.00 | 0.13 | 0.00 | 85 | 1006.2 |
| 20260507052559 | 13 | 209 | 0.0 | 6.4 | 0.00 | 0.13 | 0.00 | 84 | 1006.1 |
| 20260507052100 | 13 | 332 | 0.0 | 8.0 | 0.00 | 0.13 | 0.00 | 84 | 1006.0 |
| 20260507051556 | 13 | 332 | 0.0 | 8.0 | 0.00 | 0.13 | 0.00 | 85 | 1005.8 |
| 20260507051057 | 13 | 123 | 0.0 | 4.8 | 0.00 | 0.13 | 0.00 | 85 | 1005.7 |
| 20260507050556 | 14 | 262 | 0.0 | 4.8 | 0.00 | 0.13 | 0.00 | 85 | 1005.8 |
| 20260507050053 | 14 | 341 | 0.0 | 4.8 | 0.00 | 0.13 | 0.00 | 85 | 1005.8 |
| 20260507045552 | 14 | 7 | 0.0 | 6.4 | 0.00 | 0.13 | 0.00 | 85 | 1005.9 |
| 20260507045049 | 14 | 284 | 0.0 | 6.4 | 0.00 | 0.13 | 0.00 | 85 | 1006.0 |
| 20260507044549 | 14 | 270 | 0.0 | 3.2 | 0.00 | 0.13 | 0.00 | 85 | 1006.0 |
| 20260507044050 | 14 | 162 | 0.0 | 3.2 | 0.00 | 0.13 | 0.00 | 85 | 1005.8 |
| 20260507043550 | 14 | 143 | 0.0 | 3.2 | 0.00 | 0.13 | 0.00 | 85 | 1005.8 |
| 20260507043050 | 14 | 245 | 0.0 | 4.8 | 0.00 | 0.13 | 0.00 | 85 | 1005.8 |
| 20260507042549 | 14 | 302 | 0.0 | 4.8 | 0.00 | 0.13 | 0.00 | 86 | 1005.9 |
| 20260507042049 | 15 | 227 | 0.0 | 4.8 | 0.00 | 0.13 | 0.00 | 86 | 1005.9 |
| 20260507041550 | 15 | 268 | 0.0 | 3.2 | 0.00 | 0.13 | 0.00 | 86 | 1005.8 |
| 20260507041051 | 15 | 259 | 0.0 | 3.2 | 0.00 | 0.13 | 0.00 | 86 | 1005.8 |
| 20260507040549 | 15 | 237 | 0.0 | 3.2 | 0.00 | 0.13 | 0.00 | 86 | 1006.0 |
| 20260507040049 | 15 | 218 | 0.0 | 3.2 | 0.00 | 0.13 | 0.00 | 86 | 1006.3 |
| 20260507035550 | 15 | 218 | 0.0 | 4.8 | 0.00 | 0.13 | 0.13 | 86 | 1006.2 |
| 20260507035050 | 15 | 218 | 1.6 | 4.8 | 0.00 | 0.13 | 0.13 | 86 | 1006.0 |
| 20260507034549 | 15 | 218 | 1.6 | 8.0 | 0.00 | 0.13 | 0.13 | 86 | 1005.9 |
| 20260507034047 | 15 | 209 | 1.6 | 8.0 | 0.00 | 0.13 | 0.13 | 86 | 1005.9 |
| 20260507033546 | 15 | 204 | 1.6 | 6.4 | 0.00 | 0.13 | 0.13 | 86 | 1005.7 |
| 20260507033045 | 15 | 205 | 0.0 | 4.8 | 0.00 | 0.13 | 0.13 | 86 | 1005.8 |
| 20260507032545 | 15 | 205 | 1.6 | 4.8 | 0.00 | 0.13 | 0.13 | 86 | 1005.8 |
| 20260507032048 | 15 | 203 | 1.6 | 8.0 | 0.00 | 0.13 | 0.13 | 86 | 1005.6 |
| 20260507031818 | 15 | 203 | 3.2 | 9.7 | 0.00 | 0.13 | 0.13 | 86 | 1005.4 |
| 20260507031048 | 15 | 208 | 3.2 | 9.7 | 0.00 | 0.13 | 0.13 | 86 | 1005.4 |
| 20260507030547 | 15 | 208 | 1.6 | 8.0 | 0.00 | 0.13 | 0.13 | 86 | 1005.4 |
| 20260507030047 | 15 | 210 | 3.2 | 6.4 | 0.00 | 0.13 | 0.13 | 86 | 1005.3 |
| 20260507025545 | 15 | 210 | 3.2 | 6.4 | 0.00 | 0.13 | 0.13 | 86 | 1005.1 |
| 20260507025046 | 15 | 198 | 3.2 | 9.7 | 0.00 | 0.13 | 0.13 | 86 | 1005.2 |
| 20260507024545 | 15 | 300 | 3.2 | 9.7 | 0.00 | 0.13 | 0.13 | 86 | 1005.3 |
| 20260507024045 | 15 | 194 | 3.2 | 9.7 | 0.00 | 0.13 | 0.13 | 86 | 1005.5 |
| 20260507023815 | 14 | 202 | 3.2 | 8.0 | 0.00 | 0.13 | 0.13 | 86 | 1005.5 |
| 20260507023316 | 14 | 205 | 1.6 | 8.0 | 0.00 | 0.13 | 0.13 | 86 | 1005.5 |
| 20260507022544 | 14 | 205 | 1.6 | 8.0 | 0.00 | 0.13 | 0.13 | 86 | 1005.5 |
| 20260507022041 | 14 | 226 | 3.2 | 8.0 | 0.00 | 0.13 | 0.13 | 86 | 1005.4 |
| 20260507021542 | 14 | 192 | 1.6 | 8.0 | 0.00 | 0.13 | 0.13 | 86 | 1005.5 |
| 20260507021314 | 14 | 189 | 1.6 | 8.0 | 0.00 | 0.13 | 0.13 | 86 | 1005.4 |
| 20260507020539 | 14 | 185 | 1.6 | 8.0 | 0.00 | 0.13 | 0.13 | 86 | 1005.4 |
| 20260507020038 | 14 | 208 | 1.6 | 8.0 | 0.00 | 0.13 | 0.13 | 86 | 1005.4 |
| 20260507015535 | 14 | 206 | 3.2 | 8.0 | 0.00 | 0.13 | 0.13 | 86 | 1005.4 |
| 20260507015032 | 14 | 190 | 3.2 | 8.0 | 0.00 | 0.13 | 0.13 | 86 | 1005.4 |
| 20260507014532 | 14 | 220 | 3.2 | 8.0 | 0.00 | 0.13 | 0.13 | 86 | 1005.5 |
| 20260507014017 | 14 | 214 | 3.2 | 8.0 | 0.00 | 0.13 | 0.13 | 86 | 1005.5 |
| 20260507013517 | 14 | 217 | 3.2 | 8.0 | 0.00 | 0.13 | 0.13 | 86 | 1005.5 |
| 20260507013018 | 14 | 210 | 3.2 | 11.3 | 0.00 | 0.13 | 0.13 | 86 | 1005.5 |
| 20260507012517 | 14 | 212 | 3.2 | 11.3 | 0.00 | 0.13 | 0.13 | 86 | 1005.6 |
| 20260507012017 | 14 | 206 | 4.8 | 9.7 | 0.00 | 0.13 | 0.13 | 86 | 1005.7 |
| 20260507011515 | 14 | 211 | 3.2 | 8.0 | 0.00 | 0.13 | 0.13 | 86 | 1005.7 |
| 20260507011015 | 14 | 189 | 3.2 | 12.9 | 0.00 | 0.13 | 0.13 | 86 | 1005.7 |
| 20260507010516 | 14 | 214 | 3.2 | 12.9 | 0.00 | 0.13 | 0.13 | 86 | 1005.7 |
| 20260507010246 | 14 | 207 | 4.8 | 9.7 | 0.00 | 0.13 | 0.13 | 86 | 1005.8 |
| 20260507005517 | 14 | 182 | 3.2 | 9.7 | 0.00 | 0.13 | 0.13 | 86 | 1005.8 |
| 20260507005016 | 13 | 202 | 3.2 | 6.4 | 0.00 | 0.13 | 0.13 | 86 | 1005.8 |
| 20260507004515 | 13 | 200 | 3.2 | 9.7 | 0.00 | 0.13 | 0.13 | 86 | 1005.8 |
| 20260507004015 | 14 | 234 | 3.2 | 9.7 | 0.00 | 0.13 | 0.13 | 86 | 1005.7 |
| 20260507003513 | 14 | 198 | 3.2 | 12.9 | 0.00 | 0.13 | 0.13 | 86 | 1005.7 |
| 20260507003014 | 14 | 208 | 3.2 | 12.9 | 0.03 | 0.13 | 0.13 | 86 | 1005.7 |
| 20260507002513 | 14 | 197 | 3.2 | 14.5 | 0.03 | 0.13 | 0.13 | 86 | 1005.8 |
| 20260507002011 | 14 | 218 | 3.2 | 14.5 | 0.03 | 0.13 | 0.13 | 86 | 1005.7 |
| 20260507001509 | 14 | 147 | 3.2 | 9.7 | 0.05 | 0.13 | 0.13 | 86 | 1005.7 |
| 20260507001007 | 14 | 205 | 4.8 | 9.7 | 0.05 | 0.13 | 0.13 | 86 | 1005.6 |
| 20260507000507 | 14 | 197 | 4.8 | 11.3 | 0.05 | 0.13 | 0.13 | 86 | 1005.5 |
| 20260507000007 | 14 | 205 | 4.8 | 11.3 | 0.05 | 0.13 | 0.13 | 86 | 1005.4 |
| 20260506235500 | 14 | 199 | 4.8 | 9.7 | 0.05 | 0.13 | 0.13 | 86 | 1005.4 |
| 20260506234954 | 14 | 204 | 3.2 | 9.7 | 0.05 | 0.13 | 0.13 | 86 | 1005.5 |
| 20260506234447 | 14 | 207 | 3.2 | 11.3 | 0.05 | 0.13 | 0.13 | 86 | 1005.6 |
| 20260506233947 | 14 | 196 | 4.8 | 11.3 | 0.05 | 0.13 | 0.13 | 85 | 1005.6 |
| 20260506233447 | 14 | 205 | 3.2 | 11.3 | 0.05 | 0.13 | 0.13 | 85 | 1005.5 |
| 20260506232945 | 15 | 200 | 4.8 | 12.9 | 0.03 | 0.10 | 0.10 | 85 | 1005.4 |
| 20260506232445 | 15 | 212 | 4.8 | 12.9 | 0.03 | 0.10 | 0.10 | 85 | 1005.4 |
| 20260506231943 | 15 | 308 | 3.2 | 9.7 | 0.03 | 0.10 | 0.10 | 85 | 1005.4 |
| 20260506231712 | 15 | 201 | 3.2 | 9.7 | 0.00 | 0.08 | 0.08 | 85 | 1005.4 |
| 20260506230941 | 15 | 209 | 3.2 | 8.0 | 0.00 | 0.08 | 0.08 | 85 | 1005.4 |
| 20260506230441 | 15 | 192 | 3.2 | 9.7 | 0.00 | 0.08 | 0.08 | 85 | 1005.4 |
| 20260506225939 | 15 | 198 | 3.2 | 9.7 | 0.00 | 0.08 | 0.08 | 85 | 1005.4 |
| 20260506225708 | 15 | 214 | 3.2 | 8.0 | 0.00 | 0.08 | 0.08 | 85 | 1005.4 |
| 20260506224931 | 15 | 205 | 4.8 | 11.3 | 0.03 | 0.08 | 0.08 | 85 | 1005.5 |
| 20260506224421 | 15 | 216 | 4.8 | 12.9 | 0.03 | 0.08 | 0.08 | 85 | 1005.5 |
| 20260506223913 | 15 | 216 | 4.8 | 12.9 | 0.03 | 0.08 | 0.08 | 85 | 1005.6 |
| 20260506223413 | 15 | 206 | 4.8 | 12.9 | 0.03 | 0.08 | 0.08 | 85 | 1005.6 |
| 20260506222913 | 15 | 220 | 4.8 | 12.9 | 0.03 | 0.08 | 0.08 | 85 | 1005.7 |
| 20260506222413 | 15 | 206 | 4.8 | 11.3 | 0.03 | 0.08 | 0.08 | 85 | 1005.7 |
| 20260506221913 | 15 | 210 | 6.4 | 11.3 | 0.03 | 0.08 | 0.08 | 85 | 1005.8 |
| 20260506221413 | 15 | 207 | 4.8 | 11.3 | 0.03 | 0.08 | 0.08 | 85 | 1005.8 |
| 20260506220913 | 15 | 208 | 4.8 | 11.3 | 0.03 | 0.08 | 0.08 | 85 | 1005.8 |
| 20260506220413 | 15 | 208 | 3.2 | 9.7 | 0.03 | 0.08 | 0.08 | 85 | 1005.8 |
| 20260506220144 | 15 | 207 | 4.8 | 9.7 | 0.03 | 0.08 | 0.08 | 84 | 1005.9 |
| 20260506215413 | 15 | 214 | 6.4 | 16.1 | 0.03 | 0.08 | 0.08 | 84 | 1006.1 |
| 20260506214915 | 16 | 195 | 4.8 | 16.1 | 0.00 | 0.05 | 0.05 | 84 | 1006.1 |
| 20260506214410 | 16 | 237 | 4.8 | 12.9 | 0.00 | 0.05 | 0.05 | 83 | 1006.2 |
| 20260506213853 | 16 | 201 | 4.8 | 14.5 | 0.00 | 0.05 | 0.05 | 83 | 1006.2 |
| 20260506213339 | 16 | 204 | 4.8 | 16.1 | 0.00 | 0.05 | 0.05 | 83 | 1006.4 |
| 20260506212833 | 16 | 208 | 4.8 | 16.1 | 0.00 | 0.05 | 0.05 | 83 | 1006.3 |
| 20260506212333 | 16 | 205 | 4.8 | 16.1 | 0.00 | 0.05 | 0.05 | 83 | 1006.3 |
| 20260506211831 | 16 | 203 | 4.8 | 16.1 | 0.00 | 0.05 | 0.05 | 82 | 1006.3 |
| 20260506211331 | 16 | 214 | 6.4 | 14.5 | 0.00 | 0.05 | 0.05 | 83 | 1006.2 |
| 20260506210831 | 16 | 188 | 6.4 | 14.5 | 0.00 | 0.05 | 0.05 | 83 | 1006.3 |
| 20260506210331 | 16 | 133 | 4.8 | 9.7 | 0.00 | 0.05 | 0.05 | 83 | 1006.3 |
| 20260506205831 | 16 | 205 | 3.2 | 12.9 | 0.00 | 0.05 | 0.05 | 82 | 1006.3 |
| 20260506205331 | 16 | 234 | 3.2 | 12.9 | 0.00 | 0.05 | 0.05 | 82 | 1006.4 |
| 20260506204830 | 16 | 199 | 4.8 | 12.9 | 0.03 | 0.05 | 0.05 | 82 | 1006.5 |
| 20260506204331 | 16 | 215 | 6.4 | 14.5 | 0.03 | 0.05 | 0.05 | 81 | 1006.7 |
| 20260506203829 | 16 | 187 | 6.4 | 16.1 | 0.03 | 0.05 | 0.05 | 81 | 1006.6 |
| 20260506203312 | 16 | 208 | 4.8 | 16.1 | 0.03 | 0.05 | 0.05 | 80 | 1006.6 |
| 20260506202758 | 16 | 216 | 4.8 | 12.9 | 0.03 | 0.05 | 0.05 | 80 | 1006.5 |
| 20260506202255 | 16 | 207 | 3.2 | 8.0 | 0.05 | 0.05 | 0.05 | 80 | 1006.5 |